Regional Weather Roundup
Issued by NWS Charleston, SC

Current Version | Previous Version | Graphics & Text | Print | Product List | Glossary Off
Versions: 1 2 3 4 5 6 7 8 9 10 11 12 13 14 15 16 17 18 19 20 21 22 23 24 25 26 27 28 29 30 31 32 33 34 35 36 37 38 39 40 41 42 43 44 45 46 47 48 49 50
000 ASUS42 KCHS 272110 RWRCHS REGIONAL WEATHER ROUNDUP NATIONAL WEATHER SERVICE CHARLESTON SC 400 PM EST TUE JAN 27 2015 NOTE: "FAIR" INDICATES FEW OR NO CLOUDS BELOW 12,000 FEET WITH NO SIGNIFICANT WEATHER AND/OR OBSTRUCTIONS TO VISIBILITY. NOT ALL STATIONS ARE QUALITY CONTROLLED BY THE NATIONAL WEATHER SERVICE. USE DATA WITH CAUTION...ESPECIALLY DEWPOINT OBSERVATIONS. SCZ027-030-031-034>040-042>050-272200- ...SOUTHEAST SOUTH CAROLINA... CITY SKY/WX TMP DP RH WIND PRES REMARKS N CHARLESTON MOSUNNY 51 25 36 N13G22 29.88R WATERFRONT PRK NOT AVBL MOUNT PLEASANT FAIR N/A N/A N/A NW12G17 29.86R PINOPOLIS NOT AVBL MONCKS CORNER FAIR 50 19 29 NW6 29.86S SUMMERVILLE FAIR 50 27 40 N12G18 29.89R BEAUFORT MCAS MOSUNNY 51 30 44 NW9G20 29.90R BEAUFORT ARPT FAIR 50 34 53 NW12G22 29.89S HILTON HEAD IS MOSUNNY 50 32 50 N13G20 29.90R WALTERBORO PTCLDY 50 25 37 W7 29.90R ALLENDALE MOCLDY 52 30 43 NW7G15 29.89R ...SOUTHERN MIDLANDS AND PEE DEE... CITY SKY/WX TMP DP RH WIND PRES REMARKS GEORGETOWN NOT AVBL KINGSTREE NOT AVBL ORANGEBURG MOSUNNY 50 25 37 NW12G18 29.88R BARNWELL FAIR 52 30 43 W8 29.90R AIKEN FAIR 50 30 46 NW7 29.92R MANNING FAIR 48 19 32 NW9G16 29.88R COLUMBIA MOSUNNY 50 27 40 NW12 29.88R SUMTER MOSUNNY 49 21 32 NW10 29.86R FLORENCE SUNNY 49 17 28 NW8 29.84R MYRTLE BEACH SUNNY 46 19 34 NW13 29.85R N MYRTLE BEACH SUNNY 47 21 35 NW10G17 29.83R $$ GAZ063-065-086>088-099>101-113>116-118-119-134>141-150-272200- ...SOUTHEAST GEORGIA... CITY SKY/WX TMP DP RH WIND PRES REMARKS SAVANNAH ARPT PTSUNNY 54 30 40 NW12 29.90R HUNTER AAF MOSUNNY 55 29 36 NW14G24 29.87R FORT STEWART CLOUDY 53 30 41 NW13 29.90R STATESBORO PTSUNNY 51 32 47 NW15 29.91R SYLVANIA CLOUDY 50 34 53 N13 29.91R CLAXTON FAIR 52 32 46 NW15G24 29.92R ...CSRA...CENTRAL AND FAR SOUTHEAST GEORGIA... CITY SKY/WX TMP DP RH WIND PRES REMARKS THOMSON PTSUNNY 53 32 44 W7 29.94R AUGUSTA-BUSH MOSUNNY 53 28 38 NW13 29.90R AUGUSTA-DANIEL MOSUNNY 53 26 35 NW12G23 29.90R SWAINSBORO FAIR 54 16 22 NW13G21 29.93R VIDALIA CLOUDY 52 34 50 NW10G21 29.93R EASTMAN FAIR 56 31 39 NW12G22 29.96R HAZLEHURST FAIR 55 33 42 NW18G28 29.92R ALMA MOSUNNY 56 33 42 NW17G24 29.92R WAYCROSS SUNNY 60 37 43 NW16 29.92R JESUP FAIR 57 34 41 NW14G28 29.92R BAXLEY PTSUNNY 57 32 38 N10G21 29.91S BRUNSWICK PTSUNNY 55 34 44 W10G17 29.91R SAINT SIMONS PTSUNNY 56 35 45 W13G25 29.89R $$ SCZ027-028-034-036>038-045-046-048>050-GAZ119-141-272200- ...LAKE AND SUPPLEMENTAL COASTAL OBSERVATIONS... STATION/POSITION TIME TEMP WIND PRES WAVE SWELL AIR SEA DIR/SP/G HT/PER HT/PER/DIR (UTC) (F) (DEG/KT/KT) (MB) (FT/S) (FT/S/D) UPR LAKE MARION NOT AVBL WINYAH BAY NOT AVBL LAKE MURRAY 2000 47 320/ 3/ 19 1010.8S ACE BASIN NERRS 1945 48 350/ 5 1011.0 FORT PULASKI 2000 49 52 340/ 12/ 14 1012.0R SAPELO ISLAND 2000 55 290/ 17 1012.0R $$ ANZ835-935-AMZ111-154-330-350-352-354-370-450-454-472-272200- ...C-MAN AND BUOY OBSERVATIONS... STATION/POSITION TIME TEMP WIND PRES WAVE SWELL AIR SEA DIR/SP/G HT/PER HT/PER/DIR (UTC) (F) (DEG/KT/KT) (MB) (FT/S) (FT/S/D) BUOY 41004 2050 50 68 290/ 19/ 25 1009.9R 4/ 4 2/ 7 BUOY 41008 2050 53 54 310/ 19/ 25 1011.8R 3/ 4 FOLLY BEACH CMAN 2000 48 280/ 7/ 10 1011.3R CAPERS NEARSHORE 2000 48 330/ 14/ 17 N/A FRIPP NEARSHORE 2000 49 320/ 16/ 19 N/A STATION/POSITION TIME TEMP WIND PRES WAVE SWELL AIR SEA DIR/SP/G HT/PER HT/PER/DIR (UTC) (F) (DEG/KT/KT) (MB) (FT/S) (FT/S/D) 5E ST. MARYS GA 2022 58 N/A 2/ 3 FRYING PAN BUOY 2050 44 65 320/ 14/ 19 1009.8R 5/ 8 3/190/ 8 BUOY 41025 2050 39 69 330/ 17/ 23 1006.9R 11/14 10/ 50/14 CAPE LOOKOUT NC 2000 37 340/ 13/ 15 1008.1R BUOY 41002 2050 58 71 280/ 25/ 33 1004.6R 13/ 8 8/260/10 BUOY 41010 2020 62 76 290/ 25/ 31 1011.1F ST AUGUSTINE FL 2100 64 300/ 14/ 20 1011.6F $$

USA.gov is the U.S. government's official web portal to all federal, state and local government web resources and services.